This demonstration page uses our WeatherBlox Daily Observations layout. Learn more.

Left ArrowRight Arrow

39.01783, -85.05884

Hourly Observations for November 8, 2021

Temp ( °F °C ) Dew Point ( °F °C ) Humidity (%) Winds ( mph kmh ) Pressure ( in mb ) Visibility ( mi km ) Precip ( " mm )
12:52 am 00:52 Mostly Clear 42 5.6 34 1.1 73 73 S 5 7 30.20 1023 10 16 N/A
1:52 am 01:52 Mostly Clear 38 3.3 34 1.1 86 86 S 3 6 30.21 1023 10 16 N/A
2:52 am 02:52 Clear 37 2.8 33 0.6 86 86 SSW 5 7 30.22 1024 10 16 N/A
3:52 am 03:52 Clear 39 3.9 33 0.6 79 79 S 5 7 30.22 1024 10 16 N/A
4:52 am 04:52 Clear 37 2.8 32 undefined 82 82 S 5 7 30.24 1024 10 16 N/A
5:52 am 05:52 Clear 35 1.7 32 undefined 89 89 S 7 11 30.25 1025 10 16 N/A
6:52 am 06:52 Clear 38 3.3 32 undefined 79 79 S 7 11 30.25 1025 10 16 N/A
7:52 am 07:52 Sunny 39 3.9 33 0.6 79 79 S 3 6 30.27 1025 8 13 N/A
8:52 am 08:52 Sunny 49 9.4 36 2.2 61 61 SSW 6 9 30.29 1026 10 16 N/A
9:52 am 09:52 Sunny 54 12.2 38 3.3 55 55 SSW 8 13 30.29 1026 10 16 N/A
10:52 am 10:52 Sunny 59 15 38 3.3 46 46 SSW 10 17 30.28 1026 10 16 N/A
11:52 am 11:52 Sunny 62 16.7 38 3.3 41 41 SSW 10 17 30.26 1025 10 16 N/A
12:52 pm 12:52 Sunny 65 18.3 38 3.3 37 37 S 12 19 30.24 1024 10 16 N/A
1:52 pm 13:52 Sunny 67 19.4 39 3.9 36 36 SSW 8 13 30.22 1023 10 16 N/A
2:52 pm 14:52 Mostly Sunny 68 20 37 2.8 32 32 SW 10 17 30.21 1023 10 16 N/A
3:52 pm 15:52 Mostly Sunny 68 20 36 2.2 31 31 SSW 8 13 30.20 1023 10 16 N/A
4:52 pm 16:52 Partly Cloudy 65 18.3 36 2.2 34 34 SSW 9 15 30.20 1023 10 16 N/A
5:52 pm 17:52 Partly Cloudy 61 16.1 35 1.7 38 38 SSW 6 9 30.21 1023 10 16 N/A
6:52 pm 18:52 Mostly Clear 57 13.9 36 2.2 45 45 S 7 11 30.22 1023 10 16 N/A
7:52 pm 19:52 Mostly Clear 56 13.3 36 2.2 47 47 S 7 11 30.22 1023 10 16 N/A
8:52 pm 20:52 Clear 53 11.7 36 2.2 52 52 S 8 13 30.21 1023 10 16 N/A
9:52 pm 21:52 Clear 52 11.1 36 2.2 55 55 SSW 9 15 30.20 1023 10 16 N/A
10:52 pm 22:52 Clear 52 11.1 36 2.2 55 55 SSW 8 13 30.20 1023 10 16 N/A
11:52 pm 23:52 Mostly Clear 52 11.1 37 2.8 57 57 SSW 9 15 30.19 1023 10 16 N/A

Powered by AerisWeather